Location: Nebula Knoll Observatory
(43.6666°N, 71.0000°W)
Time: 21:19:45
(UTC-04:00)

Cosmos 1782 - Visible Passes

Search period start: 29 June 2016 00:00
Search period end: 09 July 2016 00:00
Orbit: 539 x 557 km, 82.5° (Epoch: 29 June)

Date Brightness Start Highest point End Pass type
(mag) Time Alt. Az. Time Alt. Az. Time Alt. Az.
29 Jun 3.6 01:05:32 10° NNW 01:09:01 41° W 01:09:01 41° W visible
29 Jun 4.9 23:25:15 10° NNE 23:27:46 16° ENE 23:28:24 16° E visible
30 Jun 3.7 01:00:37 10° NNW 01:04:04 38° W 01:04:04 38° W visible
30 Jun 4.8 23:20:10 10° NNE 23:22:51 17° ENE 23:23:26 17° E visible
01 Jul 3.8 00:55:43 10° NNW 00:59:07 35° W 00:59:07 35° W visible
01 Jul 4.7 23:15:06 10° NNE 23:17:56 18° ENE 23:18:30 18° E visible
02 Jul 3.9 00:50:49 10° NNW 00:54:10 33° W 00:54:10 33° W visible
02 Jul 4.6 23:10:04 10° NNE 23:13:01 20° ENE 23:13:34 19° E visible
03 Jul 4.1 00:45:55 10° NNW 00:49:14 31° W 00:49:14 31° W visible
03 Jul 4.5 23:05:01 10° NNE 23:08:05 21° ENE 23:08:39 20° E visible
04 Jul 4.2 00:41:02 10° NNW 00:44:19 29° W 00:44:19 29° W visible
04 Jul 4.4 22:59:58 10° NNE 23:03:10 22° ENE 23:03:44 22° E visible
05 Jul 4.3 00:36:08 10° NNW 00:39:24 27° W 00:39:24 27° W visible
05 Jul 4.3 22:54:56 10° NNE 22:58:14 24° ENE 22:58:50 23° E visible
06 Jul 4.4 00:31:15 10° NW 00:34:30 25° W 00:34:30 25° W visible
06 Jul 4.1 22:49:55 10° NNE 22:53:18 26° ENE 22:53:57 24° E visible
07 Jul 4.5 00:26:22 10° NW 00:29:34 23° W 00:29:37 23° W visible
07 Jul 4.0 22:44:54 10° NNE 22:48:22 27° ENE 22:49:04 26° E visible
08 Jul 4.6 00:21:30 10° NW 00:24:35 22° W 00:24:44 22° W visible
08 Jul 3.9 22:39:53 10° NNE 22:43:25 29° ENE 22:44:12 27° E visible
